"Sample Date","Sample Time","Sample Value","Units","Flow Rate","Sample Interval","Number Channels","Micron Size 0","Counts/Channel 0","Micron Size 1","Counts/Channel 1","Micron Size 2","Counts/Channel 2","Micron Size 3","Counts/Channel 3","Micron Size 4","Counts/Channel 4","Micron Size 5","Counts/Channel 5","Micron Size 6","Counts/Channel 6","Micron Size 7","Counts/Channel 7","Micron Size 8","Counts/Channel 8","Micron Size 9","Counts/Channel 9","Micron Size 10","Counts/Channel 10","Micron Size 11","Counts/Channel 11","Micron Size 12","Counts/Channel 12","Micron Size 13","Counts/Channel 13","Micron Size 14","Counts/Channel 14","Micron Size 15","Counts/Channel 15","Micron Size 16","Counts/Channel 16","Micron Size 17","Counts/Channel 17","Micron Size 18","Counts/Channel 18","Micron Size 19","Counts/Channel 19","Micron Size 20","Counts/Channel 20","Micron Size 21","Counts/Channel 21","Micron Size 22","Counts/Channel 22","Micron Size 23","Counts/Channel 23","Micron Size 24","Counts/Channel 24","Micron Size 25","Counts/Channel 25","Micron Size 26","Counts/Channel 26","Micron Size 27","Counts/Channel 27","Micron Size 28","Counts/Channel 28","Micron Size 29","Counts/Channel 29","Micron Size 30","Counts/Channel 30","Micron Size 31","Counts/Channel 31"
"03/12/08","05:00:02",26252.000,"cc",28286.016,6.00,6,0.100,21423.000,0.200,1809.000,0.300,1189.000,0.500,1410.000,1.000,421.000,5.000,0
"03/12/08","05:00:08",26491.000,"cc",28327.656,6.00,6,0.100,21752.000,0.200,1804.000,0.300,1168.000,0.500,1414.000,1.000,353.000,5.000,0
"03/12/08","05:00:14",26433.000,"cc",28336.918,6.00,6,0.100,21571.000,0.200,1855.000,0.300,1205.000,0.500,1405.000,1.000,397.000,5.000,0
"03/12/08","05:00:20",26549.000,"cc",28282.565,6.00,6,0.100,21774.000,0.200,1807.000,0.300,1214.000,0.500,1356.000,1.000,398.000,5.000,0
"03/12/08","05:00:26",26445.000,"cc",28319.061,6.00,6,0.100,21635.000,0.200,1860.000,0.300,1182.000,0.500,1370.000,1.000,398.000,5.000,0
"03/12/08","05:00:32",26707.000,"cc",28326.287,6.00,6,0.100,21859.000,0.200,1849.000,0.300,1227.000,0.500,1381.000,1.000,391.000,5.000,0
"03/12/08","05:00:38",26255.000,"cc",28315.600,6.00,6,0.100,21498.000,0.200,1789.000,0.300,1173.000,0.500,1406.000,1.000,389.000,5.000,0
"03/12/08","05:00:44",26459.000,"cc",28334.248,6.00,6,0.100,21645.000,0.200,1886.000,0.300,1170.000,0.500,1379.000,1.000,379.000,5.000,0
"03/12/08","05:00:50",26347.000,"cc",28316.451,6.00,6,0.100,21437.000,0.200,1906.000,0.300,1215.000,0.500,1406.000,1.000,383.000,5.000,0
"03/12/08","05:00:56",26170.000,"cc",28274.627,6.00,6,0.100,21317.000,0.200,1844.000,0.300,1229.000,0.500,1397.000,1.000,383.000,5.000,0
"03/12/08","05:01:02",26467.000,"cc",28325.945,6.00,6,0.100,21475.000,0.200,1895.000,0.300,1168.000,0.500,1518.000,1.000,411.000,5.000,0
"03/12/08","05:01:08",26404.000,"cc",28383.051,6.00,6,0.100,21568.000,0.200,1877.000,0.300,1178.000,0.500,1399.000,1.000,382.000,5.000,0
"03/12/08","05:01:14",26485.000,"cc",28286.420,6.00,6,0.100,21773.000,0.200,1821.000,0.300,1161.000,0.500,1362.000,1.000,368.000,5.000,0
"03/12/08","05:01:20",25966.000,"cc",28309.227,6.00,6,0.100,21198.000,0.200,1830.000,0.300,1177.000,0.500,1414.000,1.000,347.000,5.000,0
"03/12/08","05:01:26",26279.000,"cc",28302.975,6.00,6,0.100,21535.000,0.200,1766.000,0.300,1201.000,0.500,1379.000,1.000,398.000,5.000,0
"03/12/08","05:01:32",26277.000,"cc",28271.914,6.00,6,0.100,21446.000,0.200,1829.000,0.300,1183.000,0.500,1427.000,1.000,392.000,5.000,0
"03/12/08","05:01:38",26451.000,"cc",28367.828,6.00,6,0.100,21684.000,0.200,1771.000,0.300,1233.000,0.500,1336.000,1.000,427.000,5.000,0
"03/12/08","05:01:44",26376.000,"cc",28299.512,6.00,6,0.100,21496.000,0.200,1838.000,0.300,1231.000,0.500,1421.000,1.000,390.000,5.000,0
"03/12/08","05:01:50",26226.000,"cc",28300.000,6.00,6,0.100,21615.000,0.200,1817.000,0.300,1114.000,0.500,1311.000,1.000,369.000,5.000,0
"03/12/08","05:01:56",26295.000,"cc",28365.381,6.00,6,0.100,21403.000,0.200,1912.000,0.300,1126.000,0.500,1433.000,1.000,421.000,5.000,0
"03/12/08","05:02:02",26341.000,"cc",28347.891,6.00,6,0.100,21488.000,0.200,1790.000,0.300,1173.000,0.500,1455.000,1.000,435.000,5.000,0
"03/12/08","05:02:08",26393.000,"cc",28316.293,6.00,6,0.100,21557.000,0.200,1860.000,0.300,1249.000,0.500,1390.000,1.000,337.000,5.000,0
"03/12/08","05:02:14",26449.000,"cc",28346.756,6.00,6,0.100,21506.000,0.200,1912.000,0.300,1221.000,0.500,1437.000,1.000,373.000,5.000,0
"03/12/08","05:02:20",26372.000,"cc",28265.639,6.00,6,0.100,21518.000,0.200,1851.000,0.300,1197.000,0.500,1392.000,1.000,414.000,5.000,0
"03/12/08","05:02:26",26483.000,"cc",28304.932,6.00,6,0.100,21694.000,0.200,1788.000,0.300,1157.000,0.500,1423.000,1.000,421.000,5.000,0
"03/12/08","05:02:32",26027.000,"cc",28389.918,6.00,6,0.100,21162.000,0.200,1870.000,0.300,1211.000,0.500,1388.000,1.000,396.000,5.000,0
"03/12/08","05:02:38",26534.000,"cc",28339.654,6.00,6,0.100,21709.000,0.200,1834.000,0.300,1213.000,0.500,1395.000,1.000,383.000,5.000,0
"03/12/08","05:02:44",25894.000,"cc",28298.951,6.00,6,0.100,21329.000,0.200,1719.000,0.300,1158.000,0.500,1329.000,1.000,359.000,5.000,0
"03/12/08","05:02:50",26375.000,"cc",28274.908,6.00,6,0.100,21417.000,0.200,1860.000,0.300,1246.000,0.500,1454.000,1.000,398.000,5.000,0
"03/12/08","05:02:56",26205.000,"cc",28301.043,6.00,6,0.100,21362.000,0.200,1870.000,0.300,1177.000,0.500,1427.000,1.000,369.000,5.000,0
"03/12/08","05:03:02",26288.000,"cc",28308.572,6.00,6,0.100,21588.000,0.200,1778.000,0.300,1158.000,0.500,1403.000,1.000,361.000,5.000,0
"03/12/08","05:03:08",26447.000,"cc",28327.182,6.00,6,0.100,21630.000,0.200,1804.000,0.300,1207.000,0.500,1398.000,1.000,408.000,5.000,0
"03/12/08","05:03:14",26252.000,"cc",28309.691,6.00,6,0.100,21450.000,0.200,1882.000,0.300,1175.000,0.500,1365.000,1.000,380.000,5.000,0
"03/12/08","05:03:20",26106.000,"cc",28349.783,6.00,6,0.100,21295.000,0.200,1857.000,0.300,1176.000,0.500,1401.000,1.000,377.000,5.000,0
"03/12/08","05:03:26",26149.000,"cc",28297.461,6.00,6,0.100,21449.000,0.200,1775.000,0.300,1225.000,0.500,1316.000,1.000,384.000,5.000,0
"03/12/08","05:03:32",26251.000,"cc",28314.473,6.00,6,0.100,21525.000,0.200,1878.000,0.300,1151.000,0.500,1300.000,1.000,397.000,5.000,0
"03/12/08","05:03:38",26352.000,"cc",28237.254,6.00,6,0.100,21535.000,0.200,1801.000,0.300,1171.000,0.500,1440.000,1.000,405.000,5.000,0
"03/12/08","05:03:44",26220.000,"cc",28343.779,6.00,6,0.100,21496.000,0.200,1793.000,0.300,1192.000,0.500,1344.000,1.000,395.000,5.000,0
"03/12/08","05:03:50",26316.000,"cc",28334.684,6.00,6,0.100,21498.000,0.200,1825.000,0.300,1181.000,0.500,1418.000,1.000,394.000,5.000,0
"03/12/08","05:03:56",26168.000,"cc",28293.650,6.00,6,0.100,21403.000,0.200,1819.000,0.300,1172.000,0.500,1377.000,1.000,397.000,5.000,0
"03/12/08","05:04:02",26323.000,"cc",28312.553,6.00,6,0.100,21503.000,0.200,1886.000,0.300,1204.000,0.500,1386.000,1.000,344.000,5.000,0
"03/12/08","05:04:08",26841.000,"cc",28321.055,6.00,6,0.100,21989.000,0.200,1874.000,0.300,1179.000,0.500,1399.000,1.000,400.000,5.000,0
"03/12/08","05:04:14",26383.000,"cc",28289.809,6.00,6,0.100,21547.000,0.200,1854.000,0.300,1183.000,0.500,1415.000,1.000,384.000,5.000,0
"03/12/08","05:04:20",26423.000,"cc",28273.393,6.00,6,0.100,21658.000,0.200,1836.000,0.300,1115.000,0.500,1437.000,1.000,377.000,5.000,0
"03/12/08","05:04:26",26259.000,"cc",28309.811,6.00,6,0.100,21568.000,0.200,1825.000,0.300,1210.000,0.500,1311.000,1.000,345.000,5.000,0
"03/12/08","05:04:32",26259.000,"cc",28345.020,6.00,6,0.100,21471.000,0.200,1846.000,0.300,1154.000,0.500,1424.000,1.000,364.000,5.000,0
"03/12/08","05:04:38",26229.000,"cc",28369.606,6.00,6,0.100,21404.000,0.200,1874.000,0.300,1189.000,0.500,1412.000,1.000,350.000,5.000,0
"03/12/08","05:04:44",26447.000,"cc",28346.561,6.00,6,0.100,21608.000,0.200,1825.000,0.300,1191.000,0.500,1411.000,1.000,412.000,5.000,0
"03/12/08","05:04:50",26575.000,"cc",28234.848,6.00,6,0.100,21690.000,0.200,1848.000,0.300,1156.000,0.500,1477.000,1.000,404.000,5.000,0
"03/12/08","05:04:56",26404.000,"cc",28233.441,6.00,6,0.100,21577.000,0.200,1822.000,0.300,1168.000,0.500,1407.000,1.000,430.000,5.000,0
"03/12/08","05:05:02",26618.000,"cc",28368.975,6.00,6,0.100,21687.000,0.200,1885.000,0.300,1252.000,0.500,1415.000,1.000,379.000,5.000,0
"03/12/08","05:05:08",26404.000,"cc",28268.932,6.00,6,0.100,21682.000,0.200,1858.000,0.300,1164.000,0.500,1343.000,1.000,357.000,5.000,0
"03/12/08","05:05:14",26222.000,"cc",28314.188,6.00,6,0.100,21340.000,0.200,1856.000,0.300,1196.000,0.500,1450.000,1.000,380.000,5.000,0
"03/12/08","05:05:20",26274.000,"cc",28359.736,6.00,6,0.100,21354.000,0.200,1925.000,0.300,1245.000,0.500,1373.000,1.000,377.000,5.000,0
"03/12/08","05:05:26",26533.000,"cc",28354.623,6.00,6,0.100,21678.000,0.200,1872.000,0.300,1205.000,0.500,1400.000,1.000,378.000,5.000,0
"03/12/08","05:05:32",26173.000,"cc",28322.842,6.00,6,0.100,21334.000,0.200,1950.000,0.300,1139.000,0.500,1381.000,1.000,369.000,5.000,0
"03/12/08","05:05:38",26358.000,"cc",28313.063,6.00,6,0.100,21484.000,0.200,1902.000,0.300,1205.000,0.500,1402.000,1.000,365.000,5.000,0
"03/12/08","05:05:44",26183.000,"cc",28291.492,6.00,6,0.100,21565.000,0.200,1758.000,0.300,1139.000,0.500,1360.000,1.000,361.000,5.000,0
"03/12/08","05:05:50",26254.000,"cc",28300.523,6.00,6,0.100,21533.000,0.200,1816.000,0.300,1165.000,0.500,1370.000,1.000,370.000,5.000,0
"03/12/08","05:05:56",26492.000,"cc",28282.711,6.00,6,0.100,21734.000,0.200,1883.000,0.300,1211.000,0.500,1323.000,1.000,341.000,5.000,0
"03/12/08","05:06:02",26535.000,"cc",28312.596,6.00,6,0.100,21779.000,0.200,1893.000,0.300,1182.000,0.500,1312.000,1.000,369.000,5.000,0
"03/12/08","05:06:08",26089.000,"cc",28347.650,6.00,6,0.100,21280.000,0.200,1856.000,0.300,1203.000,0.500,1362.000,1.000,388.000,5.000,0
"03/12/08","05:06:14",26084.000,"cc",28369.979,6.00,6,0.100,21383.000,0.200,1836.000,0.300,1160.000,0.500,1356.000,1.000,349.000,5.000,0
"03/12/08","05:06:20",26266.000,"cc",28327.856,6.00,6,0.100,21623.000,0.200,1784.000,0.300,1131.000,0.500,1364.000,1.000,364.000,5.000,0
"03/12/08","05:06:26",25979.000,"cc",28324.080,6.00,6,0.100,21234.000,0.200,1839.000,0.300,1149.000,0.500,1382.000,1.000,375.000,5.000,0
"03/12/08","05:06:32",26276.000,"cc",28226.168,6.00,6,0.100,21467.000,0.200,1814.000,0.300,1217.000,0.500,1414.000,1.000,364.000,5.000,0
"03/12/08","05:06:38",26028.000,"cc",28301.541,6.00,6,0.100,21212.000,0.200,1824.000,0.300,1164.000,0.500,1449.000,1.000,379.000,5.000,0
"03/12/08","05:06:44",26156.000,"cc",28345.709,6.00,6,0.100,21359.000,0.200,1896.000,0.300,1212.000,0.500,1333.000,1.000,356.000,5.000,0
"03/12/08","05:06:50",26419.000,"cc",28274.176,6.00,6,0.100,21617.000,0.200,1877.000,0.300,1207.000,0.500,1352.000,1.000,366.000,5.000,0
"03/12/08","05:06:56",26218.000,"cc",28262.402,6.00,6,0.100,21596.000,0.200,1805.000,0.300,1153.000,0.500,1341.000,1.000,323.000,5.000,0
"03/12/08","05:07:02",26332.000,"cc",28342.565,6.00,6,0.100,21634.000,0.200,1800.000,0.300,1175.000,0.500,1379.000,1.000,344.000,5.000,0
"03/12/08","05:07:08",26069.000,"cc",28361.627,6.00,6,0.100,21425.000,0.200,1833.000,0.300,1168.000,0.500,1302.000,1.000,341.000,5.000,0
"03/12/08","05:07:14",26213.000,"cc",28364.154,6.00,6,0.100,21446.000,0.200,1799.000,0.300,1189.000,0.500,1390.000,1.000,389.000,5.000,0
"03/12/08","05:07:20",26193.000,"cc",28367.682,6.00,6,0.100,21607.000,0.200,1809.000,0.300,1111.000,0.500,1340.000,1.000,326.000,5.000,0
"03/12/08","05:07:26",26115.000,"cc",28237.908,6.00,6,0.100,21236.000,0.200,1870.000,0.300,1217.000,0.500,1400.000,1.000,392.000,5.000,0
"03/12/08","05:07:32",26106.000,"cc",28205.869,6.00,6,0.100,21454.000,0.200,1774.000,0.300,1214.000,0.500,1348.000,1.000,316.000,5.000,0
"03/12/08","05:07:38",26294.000,"cc",28365.248,6.00,6,0.100,21580.000,0.200,1864.000,0.300,1178.000,0.500,1318.000,1.000,354.000,5.000,0
"03/12/08","05:07:44",26250.000,"cc",28371.190,6.00,6,0.100,21476.000,0.200,1852.000,0.300,1202.000,0.500,1381.000,1.000,339.000,5.000,0
"03/12/08","05:07:50",26194.000,"cc",28240.387,6.00,6,0.100,21611.000,0.200,1776.000,0.300,1149.000,0.500,1307.000,1.000,351.000,5.000,0
"03/12/08","05:07:56",25952.000,"cc",28316.635,6.00,6,0.100,21161.000,0.200,1772.000,0.300,1232.000,0.500,1426.000,1.000,361.000,5.000,0
"03/12/08","05:08:02",26004.000,"cc",28365.488,6.00,6,0.100,21312.000,0.200,1780.000,0.300,1169.000,0.500,1386.000,1.000,357.000,5.000,0
"03/12/08","05:08:08",26203.000,"cc",28354.940,6.00,6,0.100,21618.000,0.200,1784.000,0.300,1113.000,0.500,1355.000,1.000,333.000,5.000,0
"03/12/08","05:08:14",26082.000,"cc",28327.389,6.00,6,0.100,21442.000,0.200,1850.000,0.300,1123.000,0.500,1328.000,1.000,339.000,5.000,0
"03/12/08","05:08:20",25850.000,"cc",28306.371,6.00,6,0.100,21259.000,0.200,1793.000,0.300,1178.000,0.500,1281.000,1.000,339.000,5.000,0
"03/12/08","05:08:26",26195.000,"cc",28233.279,6.00,6,0.100,21549.000,0.200,1841.000,0.300,1181.000,0.500,1310.000,1.000,314.000,5.000,0
"03/12/08","05:08:32",26128.000,"cc",28367.164,6.00,6,0.100,21366.000,0.200,1865.000,0.300,1160.000,0.500,1368.000,1.000,369.000,5.000,0
"03/12/08","05:08:38",25784.000,"cc",28359.936,6.00,6,0.100,21201.000,0.200,1737.000,0.300,1169.000,0.500,1315.000,1.000,362.000,5.000,0
"03/12/08","05:08:44",26152.000,"cc",28310.430,6.00,6,0.100,21542.000,0.200,1782.000,0.300,1116.000,0.500,1336.000,1.000,376.000,5.000,0
"03/12/08","05:08:50",25965.000,"cc",28326.971,6.00,6,0.100,21385.000,0.200,1787.000,0.300,1124.000,0.500,1346.000,1.000,323.000,5.000,0
"03/12/08","05:08:56",26123.000,"cc",28332.967,6.00,6,0.100,21428.000,0.200,1867.000,0.300,1199.000,0.500,1311.000,1.000,318.000,5.000,0
"03/12/08","05:09:02",26143.000,"cc",28289.135,6.00,6,0.100,21514.000,0.200,1835.000,0.300,1174.000,0.500,1279.000,1.000,341.000,5.000,0
"03/12/08","05:09:08",26093.000,"cc",28305.299,6.00,6,0.100,21518.000,0.200,1801.000,0.300,1205.000,0.500,1242.000,1.000,327.000,5.000,0
"03/12/08","05:09:14",26194.000,"cc",28280.035,6.00,6,0.100,21475.000,0.200,1809.000,0.300,1138.000,0.500,1400.000,1.000,372.000,5.000,0
"03/12/08","05:09:20",25851.000,"cc",28298.529,6.00,6,0.100,21179.000,0.200,1761.000,0.300,1213.000,0.500,1369.000,1.000,329.000,5.000,0
"03/12/08","05:09:26",26303.000,"cc",28333.223,6.00,6,0.100,21518.000,0.200,1824.000,0.300,1226.000,0.500,1380.000,1.000,355.000,5.000,0
"03/12/08","05:09:32",26120.000,"cc",28317.440,6.00,6,0.100,21519.000,0.200,1732.000,0.300,1221.000,0.500,1278.000,1.000,370.000,5.000,0
"03/12/08","05:09:38",26089.000,"cc",28316.023,6.00,6,0.100,21381.000,0.200,1832.000,0.300,1174.000,0.500,1354.000,1.000,348.000,5.000,0
"03/12/08","05:09:44",25908.000,"cc",28412.637,6.00,6,0.100,21180.000,0.200,1852.000,0.300,1165.000,0.500,1379.000,1.000,332.000,5.000,0
"03/12/08","05:09:50",26750.000,"cc",28343.268,6.00,6,0.100,21887.000,0.200,1876.000,0.300,1191.000,0.500,1416.000,1.000,380.000,5.000,0
"03/12/08","05:09:56",26243.000,"cc",28427.000,6.00,6,0.100,21486.000,0.200,1823.000,0.300,1233.000,0.500,1361.000,1.000,340.000,5.000,0
"03/12/08","05:10:02",26416.000,"cc",28232.777,6.00,6,0.100,21534.000,0.200,1884.000,0.300,1247.000,0.500,1396.000,1.000,355.000,5.000,0
"03/12/08","05:10:08",26590.000,"cc",28254.008,6.00,6,0.100,21693.000,0.200,1848.000,0.300,1262.000,0.500,1420.000,1.000,367.000,5.000,0
"03/12/08","05:10:14",26821.000,"cc",28207.963,6.00,6,0.100,21696.000,0.200,1960.000,0.300,1269.000,0.500,1494.000,1.000,402.000,5.000,0
"03/12/08","05:10:20",26684.000,"cc",28230.125,6.00,6,0.100,21860.000,0.200,1849.000,0.300,1256.000,0.500,1383.000,1.000,336.000,5.000,0
"03/12/08","05:10:26",26599.000,"cc",28289.557,6.00,6,0.100,21720.000,0.200,1923.000,0.300,1226.000,0.500,1386.000,1.000,344.000,5.000,0
"03/12/08","05:10:32",26458.000,"cc",28354.184,6.00,6,0.100,21595.000,0.200,1902.000,0.300,1225.000,0.500,1387.000,1.000,349.000,5.000,0
"03/12/08","05:10:38",26589.000,"cc",28351.461,6.00,6,0.100,21795.000,0.200,1938.000,0.300,1195.000,0.500,1356.000,1.000,305.000,5.000,0
"03/12/08","05:10:44",28004.000,"cc",28354.400,6.00,6,0.100,23138.000,0.200,2045.000,0.300,1185.000,0.500,1322.000,1.000,314.000,5.000,0
"03/12/08","05:10:50",37829.000,"cc",28334.873,6.00,6,0.100,32215.000,0.200,2783.000,0.300,1270.000,0.500,1271.000,1.000,290.000,5.000,0
"03/12/08","05:10:56",78624.000,"cc",28329.859,6.00,6,0.100,69270.000,0.200,6161.000,0.300,1398.000,0.500,1423.000,1.000,372.000,5.000,0
"03/12/08","05:11:02",62358.000,"cc",28251.615,6.00,6,0.100,54568.000,0.200,4657.000,0.300,1292.000,0.500,1491.000,1.000,350.000,5.000,0
"03/12/08","05:11:08",99346.000,"cc",28330.182,6.00,6,0.100,88215.000,0.200,7949.000,0.300,1430.000,0.500,1405.000,1.000,347.000,5.000,0
"03/12/08","05:11:14",166283.000,"cc",28415.488,6.00,6,0.100,148535.000,0.200,14318.000,0.300,1538.000,0.500,1472.000,1.000,420.000,5.000,0
"03/12/08","05:11:20",193025.000,"cc",28262.156,6.00,6,0.100,171827.000,0.200,17567.000,0.300,1743.000,0.500,1464.000,1.000,424.000,5.000,0
"03/12/08","05:11:26",158027.000,"cc",28345.994,6.00,6,0.100,140929.000,0.200,13574.000,0.300,1599.000,0.500,1487.000,1.000,438.000,5.000,0
"03/12/08","05:11:32",166166.000,"cc",28339.215,6.00,6,0.100,148477.000,0.200,14117.000,0.300,1692.000,0.500,1461.000,1.000,419.000,5.000,0
"03/12/08","05:11:38",191634.000,"cc",28291.559,6.00,6,0.100,171083.000,0.200,16728.000,0.300,1769.000,0.500,1583.000,1.000,471.000,5.000,0
"03/12/08","05:11:44",218530.000,"cc",28353.348,6.00,6,0.100,194836.000,0.200,19972.000,0.300,1804.000,0.500,1481.000,1.000,437.000,5.000,0
"03/12/08","05:11:50",240794.000,"cc",28324.147,6.00,6,0.100,214504.000,0.200,22554.000,0.300,1773.000,0.500,1523.000,1.000,440.000,5.000,0
"03/12/08","05:11:56",183338.000,"cc",28255.356,6.00,6,0.100,145918.000,0.200,33532.000,0.300,1971.000,0.500,1454.000,1.000,463.000,5.000,0
"03/12/08","05:12:02",327977.000,"cc",28328.729,6.00,6,0.100,290883.000,0.200,33134.000,0.300,2087.000,0.500,1411.000,1.000,462.000,5.000,0
"03/12/08","05:12:08",342569.000,"cc",28284.561,6.00,6,0.100,300589.000,0.200,37462.000,0.300,2468.000,0.500,1603.000,1.000,447.000,5.000,0
"03/12/08","05:12:14",316371.000,"cc",28314.586,6.00,6,0.100,277796.000,0.200,34098.000,0.300,2487.000,0.500,1543.000,1.000,447.000,5.000,0
"03/12/08","05:12:20",243777.000,"cc",28333.180,6.00,6,0.100,216770.000,0.200,22892.000,0.300,2187.000,0.500,1508.000,1.000,420.000,5.000,0
"03/12/08","05:12:26",231237.000,"cc",28281.270,6.00,6,0.100,205502.000,0.200,21674.000,0.300,2066.000,0.500,1525.000,1.000,470.000,5.000,0
"03/12/08","05:12:32",252972.000,"cc",28339.119,6.00,6,0.100,213459.000,0.200,34622.000,0.300,2800.000,0.500,1619.000,1.000,472.000,5.000,0
"03/12/08","05:12:38",278430.000,"cc",28382.859,6.00,6,0.100,245520.000,0.200,28403.000,0.300,2393.000,0.500,1642.000,1.000,472.000,5.000,0
"03/12/08","05:12:44",188360.000,"cc",28317.357,6.00,6,0.100,166628.000,0.200,17840.000,0.300,1897.000,0.500,1530.000,1.000,465.000,5.000,0
"03/12/08","05:12:50",135006.000,"cc",28296.920,6.00,6,0.100,119935.000,0.200,11396.000,0.300,1744.000,0.500,1514.000,1.000,417.000,5.000,0
"03/12/08","05:12:56",125150.000,"cc",28268.158,6.00,6,0.100,110824.000,0.200,10703.000,0.300,1653.000,0.500,1547.000,1.000,423.000,5.000,0
"03/12/08","05:13:02",161574.000,"cc",28283.473,6.00,6,0.100,143381.000,0.200,14462.000,0.300,1725.000,0.500,1578.000,1.000,428.000,5.000,0
"03/12/08","05:13:08",248889.000,"cc",28307.897,6.00,6,0.100,219707.000,0.200,24930.000,0.300,2258.000,0.500,1554.000,1.000,440.000,5.000,0
"03/12/08","05:13:14",207944.000,"cc",28300.633,6.00,6,0.100,184898.000,0.200,19181.000,0.300,1911.000,0.500,1513.000,1.000,441.000,5.000,0
"03/12/08","05:13:20",192807.000,"cc",28395.613,6.00,6,0.100,171024.000,0.200,18059.000,0.300,1780.000,0.500,1524.000,1.000,420.000,5.000,0
"03/12/08","05:13:26",119787.000,"cc",28309.047,6.00,6,0.100,106707.000,0.200,9786.000,0.300,1483.000,0.500,1433.000,1.000,378.000,5.000,0
"03/12/08","05:13:32",171118.000,"cc",28264.234,6.00,6,0.100,152366.000,0.200,15151.000,0.300,1678.000,0.500,1493.000,1.000,430.000,5.000,0
"03/12/08","05:13:38",136309.000,"cc",28327.361,6.00,6,0.100,121363.000,0.200,11422.000,0.300,1562.000,0.500,1508.000,1.000,454.000,5.000,0
"03/12/08","05:13:44",154338.000,"cc",28293.807,6.00,6,0.100,137018.000,0.200,13797.000,0.300,1677.000,0.500,1419.000,1.000,427.000,5.000,0
"03/12/08","05:13:50",175409.000,"cc",28330.379,6.00,6,0.100,156383.000,0.200,15436.000,0.300,1735.000,0.500,1451.000,1.000,404.000,5.000,0
"03/12/08","05:13:56",126983.000,"cc",28309.063,6.00,6,0.100,112982.000,0.200,10562.000,0.300,1536.000,0.500,1470.000,1.000,433.000,5.000,0
"03/12/08","05:14:02",145375.000,"cc",28355.027,6.00,6,0.100,129526.000,0.200,12422.000,0.300,1526.000,0.500,1432.000,1.000,469.000,5.000,0
"03/12/08","05:14:08",132292.000,"cc",28315.260,6.00,6,0.100,117775.000,0.200,11098.000,0.300,1485.000,0.500,1497.000,1.000,437.000,5.000,0
"03/12/08","05:14:14",113267.000,"cc",28360.457,6.00,6,0.100,100573.000,0.200,9322.000,0.300,1463.000,0.500,1469.000,1.000,440.000,5.000,0
"03/12/08","05:14:20",242368.000,"cc",28260.541,6.00,6,0.100,216161.000,0.200,22329.000,0.300,1804.000,0.500,1596.000,1.000,478.000,5.000,0
"03/12/08","05:14:26",179285.000,"cc",28302.410,6.00,6,0.100,160318.000,0.200,15524.000,0.300,1586.000,0.500,1430.000,1.000,427.000,5.000,0
"03/12/08","05:14:32",158843.000,"cc",28303.701,6.00,6,0.100,141244.000,0.200,14151.000,0.300,1576.000,0.500,1434.000,1.000,438.000,5.000,0
"03/12/08","05:14:38",182694.000,"cc",28277.520,6.00,6,0.100,162900.000,0.200,16289.000,0.300,1691.000,0.500,1436.000,1.000,378.000,5.000,0
"03/12/08","05:14:44",147816.000,"cc",28389.326,6.00,6,0.100,131728.000,0.200,12667.000,0.300,1608.000,0.500,1417.000,1.000,396.000,5.000,0
"03/12/08","05:14:50",163318.000,"cc",28338.900,6.00,6,0.100,145800.000,0.200,13979.000,0.300,1602.000,0.500,1506.000,1.000,431.000,5.000,0
"03/12/08","05:14:56",142286.000,"cc",28292.115,6.00,6,0.100,126567.000,0.200,12184.000,0.300,1639.000,0.500,1486.000,1.000,410.000,5.000,0
"03/12/08","05:15:02",55145.000,"cc",28321.074,6.00,6,0.100,47808.000,0.200,4090.000,0.300,1291.000,0.500,1538.000,1.000,418.000,5.000,0
"03/12/08","05:15:08",78127.000,"cc",28305.020,6.00,6,0.100,68692.000,0.200,6032.000,0.300,1383.000,0.500,1587.000,1.000,433.000,5.000,0
"03/12/08","05:15:14",86865.000,"cc",28302.303,6.00,6,0.100,76876.000,0.200,6651.000,0.300,1431.000,0.500,1471.000,1.000,436.000,5.000,0
"03/12/08","05:15:20",121297.000,"cc",28333.191,6.00,6,0.100,108314.000,0.200,9661.000,0.300,1479.000,0.500,1450.000,1.000,393.000,5.000,0
"03/12/08","05:15:26",85403.000,"cc",28331.363,6.00,6,0.100,75653.000,0.200,6463.000,0.300,1362.000,0.500,1481.000,1.000,444.000,5.000,0
"03/12/08","05:15:32",79577.000,"cc",28334.473,6.00,6,0.100,70338.000,0.200,5986.000,0.300,1300.000,0.500,1476.000,1.000,477.000,5.000,0
"03/12/08","05:15:38",50432.000,"cc",28281.986,6.00,6,0.100,43581.000,0.200,3750.000,0.300,1223.000,0.500,1460.000,1.000,418.000,5.000,0
"03/12/08","05:15:44",44003.000,"cc",28283.846,6.00,6,0.100,37433.000,0.200,3217.000,0.300,1368.000,0.500,1558.000,1.000,427.000,5.000,0
"03/12/08","05:15:50",63743.000,"cc",28351.078,6.00,6,0.100,55645.000,0.200,4734.000,0.300,1363.000,0.500,1557.000,1.000,444.000,5.000,0
"03/12/08","05:15:56",60227.000,"cc",28354.371,6.00,6,0.100,52316.000,0.200,4557.000,0.300,1372.000,0.500,1529.000,1.000,453.000,5.000,0
"03/12/08","05:16:02",68888.000,"cc",28258.248,6.00,6,0.100,60468.000,0.200,5168.000,0.300,1301.000,0.500,1512.000,1.000,439.000,5.000,0
"03/12/08","05:16:08",43063.000,"cc",28274.061,6.00,6,0.100,36861.000,0.200,3136.000,0.300,1213.000,0.500,1419.000,1.000,434.000,5.000,0
"03/12/08","05:16:14",59429.000,"cc",28324.072,6.00,6,0.100,52139.000,0.200,4269.000,0.300,1157.000,0.500,1463.000,1.000,401.000,5.000,0